Weather in Huainan

China     32°38′23″N   117°00′26″E
temp.,
°C
wind,
m/s
gust,
m/s
humid.,
%
clouds,
%
prec.,
mm/h
press.,
hPa
HPBL,
m
6 march, sat
sat623:00+11ese4884100 0.3 1022295
02:00+10ene41082100 0.8 1023498
05:00+10nne61182100 0.3 1024502
08:00+10ene71185100 0.4 1027706
11:00+9ne71075100 0.0 1029792
14:00+11ene7970100 0.1 1028958
17:00+10ne6871100 0.0 1028952
20:00+8ne5770100 0.0 1029807
7 march, sun
sun723:00+6ene4771100 0.0 1031604
02:00+5ene376299 0.0 1030399
05:00+4ne366289 0.0 1030378
08:00+4ne476777 0.0 1031384
11:00+8ene345434 0.0 1030729
14:00+11ene225119 0.0 1028972
17:00+12ene33550 0.0 1026950
20:00+8e366618 0.0 1028132
8 march, mon
mon823:00+7e336384 0.0 102877
02:00+6e238080 0.0 102740
05:00+6ene3484100 0.0 1026123
08:00+7e4788100 0.0 1027296
11:00+10ese3582100 0.0 1027592
14:00+11e2482100 0.0 1025559
17:00+10e3691100 0.8 1024343
20:00+9e3794100 1.9 1025350
9 march, tue
tue923:00+9e3794100 0.6 1025323
02:00+9e2597100 1.2 1025260
05:00+9e2596100 0.4 1025271
08:00+9ese3694100 1.1 1027356
11:00+12ese358091 0.2 1027513
14:00+15se346367 0.2 1026974
17:00+15e3467100 0.1 1025816
20:00+12e3673100 0.1 1027135
10 march, wed
wed1023:00+10ese388068 0.0 1028171
02:00+9ese368141 0.0 1027123
05:00+8ese35840 0.0 1026124
08:00+9ese58750 0.0 1026353
11:00+15ese68530 0.0 1026962
14:00+17ese684524 0.0 10221258
17:00+15ese4758100 0.0 1021862
20:00+13ese4966100 0.1 1022504